Pocatello, ID

8:32 AM MDT on June 24, 2018 (GMT -0600)
Pocatello Regional

Weather History for KPIH - August, 2010

Change the Weather History Date:

Friday, August 27, 2010

  Actual Average Record
Temperature  
Mean Temperature 69 °F 66 °F  
Max Temperature 80 °F 84 °F 96 °F (2012)
Min Temperature 58 °F 49 °F 34 °F (1993)
Degree Days  
Heating Degree Days 0 2  
Month to date heating degree days 19 15  
Since 1 June heating degree days 164 166  
Since 1 July heating degree days 44 35  
Cooling Degree Days 4 3  
Month to date cooling degree days 131 134  
Year to date cooling degree days 320 357  
Since 1 June cooling degree days 320 352  
Growing Degree Days 20 (Base 50)    
Moisture  
Dew Point 39 °F    
Average Humidity 33    
Maximum Humidity 47    
Minimum Humidity 19    
Precipitation  
Precipitation T in 0.02 in 0.57 in (1991)
Month to date precipitation 0.31 0.52  
Year to date precipitation 5.74 7.98  
Snow  
Snow 0.00 in - - ()
Month to date snowfall 0.0  
Since 1 June snowfall 0.0  
Since 1 July snowfall 0.0  
Snow Depth 0.00 in    
Sea Level Pressure  
Sea Level Pressure 29.75 in    
Wind  
Wind Speed 14 mph (SW)    
Max Wind Speed 30 mph    
Max Gust Speed 35 mph    
Visibility 10 miles    
Events Rain    
T = Trace of Precipitation, MM = Missing Value Source: NWS Daily Summary

Daily Weather History Graph

Daily Weather History Graph

Search for Another Location

Airport or City:

Astronomy

Aug. 27, 2010 Rise Set
Actual Time 6:49 AM MDT 8:13 PM MDT
Civil Twilight 6:20 AM MDT 8:42 PM MDT
Nautical Twilight 5:44 AM MDT 9:18 PM MDT
Astronomical Twilight 5:06 AM MDT 9:55 PM MDT
Moon 9:06 PM MDT (8/27) 9:49 AM MDT (8/27)
Length of Visible Light 14h 22m
Length of Day
13h 23m
Waning Gibbous, 92% of the Moon is Illuminated
Aug 27
Waning Gibbous
Sep 1
Last Quarter
Sep 8
New
Sep 14
First Quarter
Sep 23
Full

Hourly Weather History & Observations

Time (MDT) Temp. Dew Point Humidity Pressure Visibility Wind Dir Wind Speed Gust Speed Precip Events Conditions
12:50 AM 80.6 °F 44.6 °F 28% 29.93 in 10.0 mi West 31.1 mph 39.1 mph N/A   Scattered Clouds
12:53 AM 78.1 °F 46.0 °F 32% 29.75 in 10.0 mi West 27.6 mph 39.1 mph 0.00 in Rain Light Rain
1:53 AM 72.0 °F 48.9 °F 44% 29.78 in 10.0 mi South 12.7 mph - 0.00 in   Unknown
2:53 AM 73.9 °F 48.0 °F 40% 29.75 in 10.0 mi SSW 16.1 mph - 0.00 in   Partly Cloudy
3:53 AM 75.0 °F 46.9 °F 37% 29.72 in 10.0 mi SSW 15.0 mph - 0.00 in   Clear
4:53 AM 69.1 °F 46.9 °F 45% 29.77 in 10.0 mi SSW 17.3 mph - N/A   Clear
5:53 AM 68.0 °F 44.1 °F 42% 29.77 in 10.0 mi SW 18.4 mph 23.0 mph N/A   Clear
6:53 AM 64.9 °F 42.1 °F 43% 29.81 in 10.0 mi SW 28.8 mph 33.4 mph N/A   Mostly Cloudy
7:53 AM 62.1 °F 41.0 °F 46% 29.85 in 10.0 mi SW 24.2 mph - N/A   Scattered Clouds
8:53 AM 64.0 °F 39.9 °F 41% 29.85 in 10.0 mi WSW 20.7 mph - N/A   Partly Cloudy
9:53 AM 66.0 °F 37.0 °F 34% 29.85 in 10.0 mi WSW 20.7 mph - N/A   Clear
10:53 AM 69.1 °F 35.1 °F 29% 29.84 in 10.0 mi WSW 20.7 mph 27.6 mph N/A   Clear
11:53 AM 72.0 °F 35.1 °F 26% 29.81 in 10.0 mi WSW 18.4 mph - N/A   Partly Cloudy
12:53 PM 71.1 °F 37.0 °F 29% 29.81 in 10.0 mi West 16.1 mph - N/A   Scattered Clouds
1:53 PM 75.0 °F 33.1 °F 22% 29.78 in 10.0 mi WSW 15.0 mph 24.2 mph N/A   Partly Cloudy
2:53 PM 78.1 °F 35.1 °F 21% 29.74 in 10.0 mi West 12.7 mph 21.9 mph N/A   Partly Cloudy
3:53 PM 79.0 °F 33.1 °F 19% 29.70 in 10.0 mi WSW 11.5 mph - N/A   Partly Cloudy
4:53 PM 78.1 °F 36.0 °F 22% 29.68 in 10.0 mi SW 9.2 mph - N/A   Clear
5:53 PM 78.1 °F 35.1 °F 21% 29.66 in 10.0 mi SSW 12.7 mph - N/A   Scattered Clouds
6:53 PM 79.0 °F 32.0 °F 18% 29.65 in 10.0 mi SW 15.0 mph - N/A   Scattered Clouds
7:53 PM 75.0 °F 36.0 °F 24% 29.65 in 10.0 mi WSW 11.5 mph - N/A   Partly Cloudy
8:53 PM 64.9 °F 37.0 °F 36% 29.66 in 10.0 mi South 6.9 mph - N/A   Clear
9:53 PM 59.0 °F 39.0 °F 48% 29.69 in 10.0 mi West 4.6 mph - N/A   Clear
10:53 PM 63.0 °F 34.0 °F 34% 29.68 in 10.0 mi West 5.8 mph - N/A   Overcast
11:53 PM 63.0 °F 41.0 °F 45% 29.65 in 10.0 mi SSW 6.9 mph - N/A   Overcast